Location: Bailleul
(50.3375°N, 2.8513°E)
Time: 05:04:37
(UTC+00:00)

Cosmos 2184 Rocket - Pass Details

Date: 19 April 2021
Orbit: 959 x 1002 km, 82.9° (Epoch: 09 May)

Event Time Altitude Azimuth Distance (km) Brightness Sun altitude
Rises 23:29:46 0° 351° (N) 3,730 8.3 -28.0°
Reaches altitude 10° 23:32:21 10° 354° (N) 2,772 7.3 -28.1°
Maximum altitude 23:38:42 69° 78° (ENE) 1,053 4.1 -28.1°
Enters shadow 23:39:21 65° 116° (ESE) 1,084 4.0 -28.1°
